Year,Month,Day,Hour,Minute,Value (Times are PST for temperature in C)
2015,08,12,00,00,17.80
2015,08,12,00,01,17.80
2015,08,12,00,02,17.80
2015,08,12,00,03,17.80
2015,08,12,00,04,17.80
2015,08,12,00,05,17.80
2015,08,12,00,06,17.80
2015,08,12,00,07,17.80
2015,08,12,00,08,17.80
2015,08,12,00,09,17.80
2015,08,12,00,10,17.80
2015,08,12,00,11,17.80
2015,08,12,00,12,17.80
2015,08,12,00,13,17.80
2015,08,12,00,14,17.80
2015,08,12,00,15,17.80
2015,08,12,00,16,17.80
2015,08,12,00,17,17.80
2015,08,12,00,18,17.80
2015,08,12,00,19,17.70
2015,08,12,00,20,17.70
2015,08,12,00,21,17.70
2015,08,12,00,22,17.70
2015,08,12,00,23,17.70
2015,08,12,00,24,17.70
2015,08,12,00,25,17.60
2015,08,12,00,26,17.60
2015,08,12,00,27,17.60
2015,08,12,00,28,17.60
2015,08,12,00,29,17.60
2015,08,12,00,30,17.60
2015,08,12,00,31,17.50
2015,08,12,00,32,17.50
2015,08,12,00,33,17.50
2015,08,12,00,34,17.40
2015,08,12,00,35,17.40
2015,08,12,00,36,17.40
2015,08,12,00,37,17.40
2015,08,12,00,38,17.40
2015,08,12,00,39,17.40
2015,08,12,00,40,17.40
2015,08,12,00,41,17.40
2015,08,12,00,42,17.30
2015,08,12,00,43,17.30
2015,08,12,00,44,17.40
2015,08,12,00,45,17.40
2015,08,12,00,46,17.40
2015,08,12,00,47,17.40
2015,08,12,00,48,17.40
2015,08,12,00,49,17.40
2015,08,12,00,50,17.40
2015,08,12,00,51,17.40
2015,08,12,00,52,17.40
2015,08,12,00,53,17.40
2015,08,12,00,54,17.40
2015,08,12,00,55,17.40
2015,08,12,00,56,17.40
2015,08,12,00,57,17.40
2015,08,12,00,58,17.30
2015,08,12,00,59,17.30
2015,08,12,01,00,17.30
2015,08,12,01,01,17.30
2015,08,12,01,02,17.30
2015,08,12,01,03,17.30
2015,08,12,01,04,17.20
2015,08,12,01,05,17.20
2015,08,12,01,06,17.20
2015,08,12,01,07,17.20
2015,08,12,01,08,17.20
2015,08,12,01,09,17.10
2015,08,12,01,10,17.10
2015,08,12,01,11,17.10
2015,08,12,01,12,17.10
2015,08,12,01,13,17.10
2015,08,12,01,14,17.10
2015,08,12,01,15,17.10
2015,08,12,01,16,17.10
2015,08,12,01,17,17.10
2015,08,12,01,18,17.10
2015,08,12,01,19,17.10
2015,08,12,01,20,17.10
2015,08,12,01,21,17.10
2015,08,12,01,22,17.10
2015,08,12,01,23,17.10
2015,08,12,01,24,17.00
2015,08,12,01,25,17.00
2015,08,12,01,26,17.00
2015,08,12,01,27,17.00
2015,08,12,01,28,16.90
2015,08,12,01,29,16.90
2015,08,12,01,30,16.90
2015,08,12,01,31,16.90
2015,08,12,01,32,16.90
2015,08,12,01,33,16.90
2015,08,12,01,34,16.90
2015,08,12,01,35,16.90
2015,08,12,01,36,16.80
2015,08,12,01,37,16.80
2015,08,12,01,38,16.80
2015,08,12,01,39,16.80
2015,08,12,01,40,16.80
2015,08,12,01,41,16.80
2015,08,12,01,42,16.80
2015,08,12,01,43,16.80
2015,08,12,01,44,16.80
2015,08,12,01,45,16.70
2015,08,12,01,46,16.70
2015,08,12,01,47,16.70
2015,08,12,01,48,16.70
2015,08,12,01,49,16.70
2015,08,12,01,50,16.70
2015,08,12,01,51,16.60
2015,08,12,01,52,16.60
2015,08,12,01,53,16.60
2015,08,12,01,54,16.60
2015,08,12,01,55,16.60
2015,08,12,01,56,16.60
2015,08,12,01,57,16.60
2015,08,12,01,58,16.50
2015,08,12,01,59,16.50
2015,08,12,02,00,16.50
2015,08,12,02,01,16.50
2015,08,12,02,02,16.50
2015,08,12,02,03,16.50
2015,08,12,02,04,16.50
2015,08,12,02,05,16.50
2015,08,12,02,06,16.50
2015,08,12,02,07,16.40
2015,08,12,02,08,16.40
2015,08,12,02,09,16.40
2015,08,12,02,10,16.40
2015,08,12,02,11,16.40
2015,08,12,02,12,16.40
2015,08,12,02,13,16.40
2015,08,12,02,14,16.40
2015,08,12,02,15,16.40
2015,08,12,02,16,16.40
2015,08,12,02,17,16.40
2015,08,12,02,18,16.40
2015,08,12,02,19,16.40
2015,08,12,02,20,16.40
2015,08,12,02,21,16.40
2015,08,12,02,22,16.40
2015,08,12,02,23,16.30
2015,08,12,02,24,16.30
2015,08,12,02,25,16.30
2015,08,12,02,26,16.30
2015,08,12,02,27,16.30
2015,08,12,02,28,16.30
2015,08,12,02,29,16.20
2015,08,12,02,30,16.20
2015,08,12,02,31,16.20
2015,08,12,02,32,16.20
2015,08,12,02,33,16.20
2015,08,12,02,34,16.20
2015,08,12,02,35,16.20
2015,08,12,02,36,16.20
2015,08,12,02,37,16.20
2015,08,12,02,38,16.20
2015,08,12,02,39,16.20
2015,08,12,02,40,16.10
2015,08,12,02,41,16.10
2015,08,12,02,42,16.10
2015,08,12,02,43,16.10
2015,08,12,02,44,16.10
2015,08,12,02,45,16.10
2015,08,12,02,46,16.10
2015,08,12,02,47,16.10
2015,08,12,02,48,16.10
2015,08,12,02,49,16.10
2015,08,12,02,50,16.10
2015,08,12,02,51,16.10
2015,08,12,02,52,16.10
2015,08,12,02,53,16.10
2015,08,12,02,54,16.10
2015,08,12,02,55,16.10
2015,08,12,02,56,16.10
2015,08,12,02,57,16.10
2015,08,12,02,58,16.10
2015,08,12,02,59,16.10
2015,08,12,03,00,16.00
2015,08,12,03,01,16.00
2015,08,12,03,02,16.00
2015,08,12,03,03,16.00
2015,08,12,03,04,16.00
2015,08,12,03,05,16.00
2015,08,12,03,06,15.90
2015,08,12,03,07,15.90
2015,08,12,03,08,15.90
2015,08,12,03,09,15.90
2015,08,12,03,10,15.90
2015,08,12,03,11,15.90
2015,08,12,03,12,15.90
2015,08,12,03,13,15.90
2015,08,12,03,14,15.90
2015,08,12,03,15,15.80
2015,08,12,03,16,15.80
2015,08,12,03,17,15.80
2015,08,12,03,18,15.80
2015,08,12,03,19,15.80
2015,08,12,03,20,15.80
2015,08,12,03,21,15.80
2015,08,12,03,22,15.80
2015,08,12,03,23,15.80
2015,08,12,03,24,15.80
2015,08,12,03,25,15.80
2015,08,12,03,26,15.80
2015,08,12,03,27,15.80
2015,08,12,03,28,15.80
2015,08,12,03,29,15.80
2015,08,12,03,30,15.80
2015,08,12,03,31,15.80
2015,08,12,03,32,15.80
2015,08,12,03,33,15.80
2015,08,12,03,34,15.80
2015,08,12,03,35,15.80
2015,08,12,03,36,15.80
2015,08,12,03,37,15.80
2015,08,12,03,38,15.80
2015,08,12,03,39,15.80
2015,08,12,03,40,15.80
2015,08,12,03,41,15.80
2015,08,12,03,42,15.80
2015,08,12,03,43,15.80
2015,08,12,03,44,15.80
2015,08,12,03,45,15.80
2015,08,12,03,46,15.80
2015,08,12,03,47,15.80
2015,08,12,03,48,15.80
2015,08,12,03,49,15.80
2015,08,12,03,50,15.80
2015,08,12,03,51,15.80
2015,08,12,03,52,15.70
2015,08,12,03,53,15.70
2015,08,12,03,54,15.70
2015,08,12,03,55,15.70
2015,08,12,03,56,15.70
2015,08,12,03,57,15.70
2015,08,12,03,58,15.70
2015,08,12,03,59,15.70
2015,08,12,04,00,15.70
2015,08,12,04,01,15.60
2015,08,12,04,02,15.60
2015,08,12,04,03,15.60
2015,08,12,04,04,15.60
2015,08,12,04,05,15.50
2015,08,12,04,06,15.50
2015,08,12,04,07,15.50
2015,08,12,04,08,15.50
2015,08,12,04,09,15.40
2015,08,12,04,10,15.40
2015,08,12,04,11,15.40
2015,08,12,04,12,15.40
2015,08,12,04,13,15.40
2015,08,12,04,14,15.40
2015,08,12,04,15,15.30
2015,08,12,04,16,15.30
2015,08,12,04,17,15.30
2015,08,12,04,18,15.30
2015,08,12,04,19,15.30
2015,08,12,04,20,15.30
2015,08,12,04,21,15.20
2015,08,12,04,22,15.20
2015,08,12,04,23,15.20
2015,08,12,04,24,15.10
2015,08,12,04,25,15.10
2015,08,12,04,26,15.10
2015,08,12,04,27,15.00
2015,08,12,04,28,15.00
2015,08,12,04,29,15.00
2015,08,12,04,30,15.00
2015,08,12,04,31,15.00
2015,08,12,04,32,15.00
2015,08,12,04,33,15.00
2015,08,12,04,34,15.00
2015,08,12,04,35,15.00
2015,08,12,04,36,15.00
2015,08,12,04,37,15.00
2015,08,12,04,38,15.00
2015,08,12,04,39,14.90
2015,08,12,04,40,14.90
2015,08,12,04,41,14.80
2015,08,12,04,42,14.80
2015,08,12,04,43,14.80
2015,08,12,04,44,14.80
2015,08,12,04,45,14.80
2015,08,12,04,46,14.80
2015,08,12,04,47,14.80
2015,08,12,04,48,14.80
2015,08,12,04,49,14.80
2015,08,12,04,50,14.80
2015,08,12,04,51,14.80
2015,08,12,04,52,14.70
2015,08,12,04,53,14.70
2015,08,12,04,54,14.70
2015,08,12,04,55,14.70
2015,08,12,04,56,14.70
2015,08,12,04,57,14.70
2015,08,12,04,58,14.70
2015,08,12,04,59,14.70
2015,08,12,05,00,14.70
2015,08,12,05,01,14.70
2015,08,12,05,02,14.70
2015,08,12,05,03,14.70
2015,08,12,05,04,14.70
2015,08,12,05,05,14.70
2015,08,12,05,06,14.70
2015,08,12,05,07,14.70
2015,08,12,05,08,14.70
2015,08,12,05,09,14.70
2015,08,12,05,10,14.70
2015,08,12,05,11,14.70
2015,08,12,05,12,14.60
2015,08,12,05,13,14.60
2015,08,12,05,14,14.60
2015,08,12,05,15,14.60
2015,08,12,05,16,14.60
2015,08,12,05,17,14.50
2015,08,12,05,18,14.50
2015,08,12,05,19,14.50
2015,08,12,05,20,14.50
2015,08,12,05,21,14.40
2015,08,12,05,22,14.40
2015,08,12,05,23,14.40
2015,08,12,05,24,14.40
2015,08,12,05,25,14.40
2015,08,12,05,26,14.40
2015,08,12,05,27,14.40
2015,08,12,05,28,14.40
2015,08,12,05,29,14.30
2015,08,12,05,30,14.30
2015,08,12,05,31,14.30
2015,08,12,05,32,14.30
2015,08,12,05,33,14.30
2015,08,12,05,34,14.30
2015,08,12,05,35,14.30
2015,08,12,05,36,14.30
2015,08,12,05,37,14.30
2015,08,12,05,38,14.30
2015,08,12,05,39,14.30
2015,08,12,05,40,14.30
2015,08,12,05,41,14.30
2015,08,12,05,42,14.30
2015,08,12,05,43,14.40
2015,08,12,05,44,14.40
2015,08,12,05,45,14.40
2015,08,12,05,46,14.40
2015,08,12,05,47,14.40
2015,08,12,05,48,14.40
2015,08,12,05,49,14.40
2015,08,12,05,50,14.40
2015,08,12,05,51,14.40
2015,08,12,05,52,14.40
2015,08,12,05,53,14.40
2015,08,12,05,54,14.40
2015,08,12,05,55,14.40
2015,08,12,05,56,14.40
2015,08,12,05,57,14.30
2015,08,12,05,58,14.30
2015,08,12,05,59,14.30
2015,08,12,06,00,14.30
2015,08,12,06,01,14.30
2015,08,12,06,02,14.30
2015,08,12,06,03,14.30
2015,08,12,06,04,14.30
2015,08,12,06,05,14.30
2015,08,12,06,06,14.30
2015,08,12,06,07,14.30
2015,08,12,06,08,14.30
2015,08,12,06,09,14.30
2015,08,12,06,10,14.30
2015,08,12,06,11,14.30
2015,08,12,06,12,14.30
2015,08,12,06,13,14.30
2015,08,12,06,14,14.30
2015,08,12,06,15,14.30
2015,08,12,06,16,14.30
2015,08,12,06,17,14.30
2015,08,12,06,18,14.30
2015,08,12,06,19,14.30
2015,08,12,06,20,14.30
2015,08,12,06,21,14.30
2015,08,12,06,22,14.30
2015,08,12,06,23,14.30
2015,08,12,06,24,14.30
2015,08,12,06,25,14.30
2015,08,12,06,26,14.30
2015,08,12,06,27,14.30
2015,08,12,06,28,14.20
2015,08,12,06,29,14.20
2015,08,12,06,30,14.20
2015,08,12,06,31,14.20
2015,08,12,06,32,14.20
2015,08,12,06,33,14.20
2015,08,12,06,34,14.20
2015,08,12,06,35,14.20
2015,08,12,06,36,14.20
2015,08,12,06,37,14.20
2015,08,12,06,38,14.20
2015,08,12,06,39,14.20
2015,08,12,06,40,14.20
2015,08,12,06,41,14.20
2015,08,12,06,42,14.20
2015,08,12,06,43,14.20
2015,08,12,06,44,14.20
2015,08,12,06,45,14.20
2015,08,12,06,46,14.20
2015,08,12,06,47,14.20
2015,08,12,06,48,14.30
2015,08,12,06,49,14.30
2015,08,12,06,50,14.30
2015,08,12,06,51,14.30
2015,08,12,06,52,14.40
2015,08,12,06,53,14.40
2015,08,12,06,54,14.50
2015,08,12,06,55,14.50
2015,08,12,06,56,14.50
2015,08,12,06,57,14.60
2015,08,12,06,58,14.60
2015,08,12,06,59,14.60
2015,08,12,07,00,14.60
2015,08,12,07,01,14.70
2015,08,12,07,02,14.70
2015,08,12,07,03,14.70
2015,08,12,07,04,14.70
2015,08,12,07,05,14.80
2015,08,12,07,06,14.80
2015,08,12,07,07,14.80
2015,08,12,07,08,14.80
2015,08,12,07,09,14.90
2015,08,12,07,10,14.90
2015,08,12,07,11,15.00
2015,08,12,07,12,15.00
2015,08,12,07,13,15.00
2015,08,12,07,14,15.00
2015,08,12,07,15,15.00
2015,08,12,07,16,15.00
2015,08,12,07,17,15.00
2015,08,12,07,18,15.00
2015,08,12,07,19,15.00
2015,08,12,07,20,15.10
2015,08,12,07,21,15.20
2015,08,12,07,22,15.20
2015,08,12,07,23,15.30
2015,08,12,07,24,15.30
2015,08,12,07,25,15.40
2015,08,12,07,26,15.40
2015,08,12,07,27,15.40
2015,08,12,07,28,15.50
2015,08,12,07,29,15.50
2015,08,12,07,30,15.60
2015,08,12,07,31,15.60
2015,08,12,07,32,15.60
2015,08,12,07,33,15.70
2015,08,12,07,34,15.70
2015,08,12,07,35,15.80
2015,08,12,07,36,15.80
2015,08,12,07,37,15.80
2015,08,12,07,38,15.90
2015,08,12,07,39,15.90
2015,08,12,07,40,15.90
2015,08,12,07,41,16.00
2015,08,12,07,42,16.00
2015,08,12,07,43,16.10
2015,08,12,07,44,16.20
2015,08,12,07,45,16.20
2015,08,12,07,46,16.30
2015,08,12,07,47,16.40
2015,08,12,07,48,16.40
2015,08,12,07,49,16.50
2015,08,12,07,50,16.60
2015,08,12,07,51,16.70
2015,08,12,07,52,16.80
2015,08,12,07,53,16.90
2015,08,12,07,54,17.00
2015,08,12,07,55,17.20
2015,08,12,07,56,17.30
2015,08,12,07,57,17.50
2015,08,12,07,58,17.60
2015,08,12,07,59,17.80
2015,08,12,08,00,17.90
2015,08,12,08,01,18.10
2015,08,12,08,02,18.20
2015,08,12,08,03,18.30
2015,08,12,08,04,18.40
2015,08,12,08,05,18.50
2015,08,12,08,06,18.60
2015,08,12,08,07,18.70
2015,08,12,08,08,18.80
2015,08,12,08,09,18.90
2015,08,12,08,10,19.00
2015,08,12,08,11,19.00
2015,08,12,08,12,19.10
2015,08,12,08,13,19.10
2015,08,12,08,14,19.20
2015,08,12,08,15,19.20
2015,08,12,08,16,19.30
2015,08,12,08,17,19.40
2015,08,12,08,18,19.60
2015,08,12,08,19,19.70
2015,08,12,08,20,19.80
2015,08,12,08,21,19.90
2015,08,12,08,22,20.00
2015,08,12,08,23,20.10
2015,08,12,08,24,20.20
2015,08,12,08,25,20.20
2015,08,12,08,26,20.30
2015,08,12,08,27,20.30
2015,08,12,08,28,20.40
2015,08,12,08,29,20.40
2015,08,12,08,30,20.50
2015,08,12,08,31,20.50
2015,08,12,08,32,20.50
2015,08,12,08,33,20.50
2015,08,12,08,34,20.50
2015,08,12,08,35,20.60
2015,08,12,08,36,20.60
2015,08,12,08,37,20.70
2015,08,12,08,38,20.80
2015,08,12,08,39,20.80
2015,08,12,08,40,20.90
2015,08,12,08,41,20.90
2015,08,12,08,42,21.00
2015,08,12,08,43,21.10
2015,08,12,08,44,21.10
2015,08,12,08,45,21.20
2015,08,12,08,46,21.20
2015,08,12,08,47,21.30
2015,08,12,08,48,21.40
2015,08,12,08,49,21.40
2015,08,12,08,50,21.50
2015,08,12,08,51,21.60
2015,08,12,08,52,21.80
2015,08,12,08,53,21.80
2015,08,12,08,54,22.00
2015,08,12,08,55,22.10
2015,08,12,08,56,22.20
2015,08,12,08,57,22.30
2015,08,12,08,58,22.40
2015,08,12,08,59,22.50
2015,08,12,09,00,22.50
2015,08,12,09,01,22.60
2015,08,12,09,02,22.70
2015,08,12,09,03,22.80
2015,08,12,09,04,22.80
2015,08,12,09,05,22.90
2015,08,12,09,06,22.90
2015,08,12,09,07,23.00
2015,08,12,09,08,23.10
2015,08,12,09,09,23.20
2015,08,12,09,10,23.30
2015,08,12,09,11,23.40
2015,08,12,09,12,23.50
2015,08,12,09,13,23.60
2015,08,12,09,14,23.70
2015,08,12,09,15,23.80
2015,08,12,09,16,23.90
2015,08,12,09,17,24.00
2015,08,12,09,18,24.10
2015,08,12,09,19,24.20
2015,08,12,09,20,24.40
2015,08,12,09,21,24.50
2015,08,12,09,22,24.60
2015,08,12,09,23,24.70
2015,08,12,09,24,24.80
2015,08,12,09,25,24.90
2015,08,12,09,26,24.90
2015,08,12,09,27,24.90
2015,08,12,09,28,24.80
2015,08,12,09,29,24.90
2015,08,12,09,30,24.90
2015,08,12,09,31,24.90
2015,08,12,09,32,24.90
2015,08,12,09,33,25.00
2015,08,12,09,34,25.00
2015,08,12,09,35,25.00
2015,08,12,09,36,25.10
2015,08,12,09,37,25.10
2015,08,12,09,38,25.20
2015,08,12,09,39,25.30
2015,08,12,09,40,25.30
2015,08,12,09,41,25.30
2015,08,12,09,42,25.30
2015,08,12,09,43,25.30
2015,08,12,09,44,25.30
2015,08,12,09,45,25.10
2015,08,12,09,46,25.00
2015,08,12,09,47,24.80
2015,08,12,09,48,24.60
2015,08,12,09,49,24.40
2015,08,12,09,50,24.30
2015,08,12,09,51,24.20
2015,08,12,09,52,24.10
2015,08,12,09,53,24.00
2015,08,12,09,54,23.90
2015,08,12,09,55,23.90
2015,08,12,09,56,23.80
2015,08,12,09,57,23.80
2015,08,12,09,58,23.80
2015,08,12,09,59,23.80
2015,08,12,10,00,23.80
2015,08,12,10,01,23.80
2015,08,12,10,02,23.80
2015,08,12,10,03,23.90
2015,08,12,10,04,24.00
2015,08,12,10,05,24.20
2015,08,12,10,06,24.40
2015,08,12,10,07,24.50
2015,08,12,10,08,24.80
2015,08,12,10,09,24.90
2015,08,12,10,10,25.10
2015,08,12,10,11,25.20
2015,08,12,10,12,25.30
2015,08,12,10,13,25.50
2015,08,12,10,14,25.60
2015,08,12,10,15,25.80
2015,08,12,10,16,25.90
2015,08,12,10,17,26.00
2015,08,12,10,18,26.20
2015,08,12,10,19,26.30
2015,08,12,10,20,26.40
2015,08,12,10,21,26.50
2015,08,12,10,22,26.60
2015,08,12,10,23,26.70
2015,08,12,10,24,26.80
2015,08,12,10,25,26.90
2015,08,12,10,26,26.90
2015,08,12,10,27,27.00
2015,08,12,10,28,26.90
2015,08,12,10,29,26.80
2015,08,12,10,30,26.70
2015,08,12,10,31,26.70
2015,08,12,10,32,26.60
2015,08,12,10,33,26.50
2015,08,12,10,34,26.50
2015,08,12,10,35,26.60
2015,08,12,10,36,26.60
2015,08,12,10,37,26.60
2015,08,12,10,38,26.60
2015,08,12,10,39,26.70
2015,08,12,10,40,26.70
2015,08,12,10,41,26.70
2015,08,12,10,42,26.80
2015,08,12,10,43,26.80
2015,08,12,10,44,26.80
2015,08,12,10,45,26.80
2015,08,12,10,46,26.80
2015,08,12,10,47,26.80
2015,08,12,10,48,26.80
2015,08,12,10,49,26.80
2015,08,12,10,50,26.90
2015,08,12,10,51,26.90
2015,08,12,10,52,27.00
2015,08,12,10,53,27.10
2015,08,12,10,54,27.10
2015,08,12,10,55,27.00
2015,08,12,10,56,26.90
2015,08,12,10,57,26.90
2015,08,12,10,58,26.90
2015,08,12,10,59,26.90
2015,08,12,11,00,26.90
2015,08,12,11,01,27.00
2015,08,12,11,02,27.10
2015,08,12,11,03,27.10
2015,08,12,11,04,27.10
2015,08,12,11,05,27.10
2015,08,12,11,06,27.10
2015,08,12,11,07,27.10
2015,08,12,11,08,27.10
2015,08,12,11,09,27.10
2015,08,12,11,10,27.20
2015,08,12,11,11,27.20
2015,08,12,11,12,27.20
2015,08,12,11,13,27.20
2015,08,12,11,14,27.20
2015,08,12,11,15,27.30
2015,08,12,11,16,27.30
2015,08,12,11,17,27.30
2015,08,12,11,18,27.30
2015,08,12,11,19,27.30
2015,08,12,11,20,27.40
2015,08,12,11,21,27.30
2015,08,12,11,22,27.20
2015,08,12,11,23,27.10
2015,08,12,11,24,27.10
2015,08,12,11,25,27.00
2015,08,12,11,26,27.00
2015,08,12,11,27,26.90
2015,08,12,11,28,26.90
2015,08,12,11,29,26.90
2015,08,12,11,30,26.90
2015,08,12,11,31,27.00
2015,08,12,11,32,27.10
2015,08,12,11,33,27.10
2015,08,12,11,34,27.20
2015,08,12,11,35,27.30
2015,08,12,11,36,27.30
2015,08,12,11,37,27.30
2015,08,12,11,38,27.20
2015,08,12,11,39,27.10
2015,08,12,11,40,27.10
2015,08,12,11,41,27.20
2015,08,12,11,42,27.20
2015,08,12,11,43,27.10
2015,08,12,11,44,27.00
2015,08,12,11,45,26.90
2015,08,12,11,46,26.80
2015,08,12,11,47,26.80
2015,08,12,11,48,26.80
2015,08,12,11,49,26.80
2015,08,12,11,50,26.80
2015,08,12,11,51,26.70
2015,08,12,11,52,26.70
2015,08,12,11,53,26.70
2015,08,12,11,54,26.70
2015,08,12,11,55,26.80
2015,08,12,11,56,26.90
2015,08,12,11,57,27.10
2015,08,12,11,58,27.20
2015,08,12,11,59,27.30
2015,08,12,12,00,27.40
2015,08,12,12,01,27.50
2015,08,12,12,02,27.70
2015,08,12,12,03,27.70
2015,08,12,12,04,27.70
2015,08,12,12,05,27.80
2015,08,12,12,06,27.90
2015,08,12,12,07,28.00
2015,08,12,12,08,28.10
2015,08,12,12,09,28.10
2015,08,12,12,10,28.10
2015,08,12,12,11,28.20
2015,08,12,12,12,28.20
2015,08,12,12,13,28.20
2015,08,12,12,14,28.20
2015,08,12,12,15,28.20
2015,08,12,12,16,28.20
2015,08,12,12,17,28.20
2015,08,12,12,18,28.20
2015,08,12,12,19,28.20
2015,08,12,12,20,28.30
2015,08,12,12,21,28.30
2015,08,12,12,22,28.40
2015,08,12,12,23,28.50
2015,08,12,12,24,28.60
2015,08,12,12,25,28.60
2015,08,12,12,26,28.60
2015,08,12,12,27,28.60
2015,08,12,12,28,28.60
2015,08,12,12,29,28.60
2015,08,12,12,30,28.50
2015,08,12,12,31,28.40
2015,08,12,12,32,28.40
2015,08,12,12,33,28.30
2015,08,12,12,34,28.30
2015,08,12,12,35,28.20
2015,08,12,12,36,28.10
2015,08,12,12,37,28.00
2015,08,12,12,38,27.90
2015,08,12,12,39,27.90
2015,08,12,12,40,27.80
2015,08,12,12,41,27.60
2015,08,12,12,42,27.50
2015,08,12,12,43,27.40
2015,08,12,12,44,27.30
2015,08,12,12,45,27.20
2015,08,12,12,46,27.20
2015,08,12,12,47,27.20
2015,08,12,12,48,27.10
2015,08,12,12,49,27.10
2015,08,12,12,50,27.10
2015,08,12,12,51,27.10
2015,08,12,12,52,27.10
2015,08,12,12,53,27.10
2015,08,12,12,54,27.10
2015,08,12,12,55,27.10
2015,08,12,12,56,27.10
2015,08,12,12,57,27.00
2015,08,12,12,58,27.00
2015,08,12,12,59,27.00
2015,08,12,13,00,27.00
2015,08,12,13,01,27.00
2015,08,12,13,02,27.00
2015,08,12,13,03,26.90
2015,08,12,13,04,26.90
2015,08,12,13,05,26.90
2015,08,12,13,06,26.90
2015,08,12,13,07,26.80
2015,08,12,13,08,26.80
2015,08,12,13,09,26.80
2015,08,12,13,10,26.70
2015,08,12,13,11,26.70
2015,08,12,13,12,26.60
2015,08,12,13,13,26.60
2015,08,12,13,14,26.60
2015,08,12,13,15,26.60
2015,08,12,13,16,26.60
2015,08,12,13,17,26.60
2015,08,12,13,18,26.50
2015,08,12,13,19,26.50
2015,08,12,13,20,26.40
2015,08,12,13,21,26.40
2015,08,12,13,22,26.40
2015,08,12,13,23,26.30
2015,08,12,13,24,26.20
2015,08,12,13,25,26.20
2015,08,12,13,26,26.10
2015,08,12,13,27,26.10
2015,08,12,13,28,26.10
2015,08,12,13,29,26.20
2015,08,12,13,30,26.20
2015,08,12,13,31,26.30
2015,08,12,13,32,26.40
2015,08,12,13,33,26.40
2015,08,12,13,34,26.50
2015,08,12,13,35,26.50
2015,08,12,13,36,26.50
2015,08,12,13,37,26.40
2015,08,12,13,38,26.40
2015,08,12,13,39,26.50
2015,08,12,13,40,26.50
2015,08,12,13,41,26.60
2015,08,12,13,42,26.60
2015,08,12,13,43,26.70
2015,08,12,13,44,26.80
2015,08,12,13,45,26.80
2015,08,12,13,46,26.80
2015,08,12,13,47,26.80
2015,08,12,13,48,26.90
2015,08,12,13,49,26.90
2015,08,12,13,50,26.90
2015,08,12,13,51,26.90
2015,08,12,13,52,27.00
2015,08,12,13,53,27.10
2015,08,12,13,54,27.20
2015,08,12,13,55,27.30
2015,08,12,13,56,27.30
2015,08,12,13,57,27.40
2015,08,12,13,58,27.50
2015,08,12,13,59,27.60
2015,08,12,14,00,27.60
2015,08,12,14,01,27.60
2015,08,12,14,02,27.50
2015,08,12,14,03,27.40
2015,08,12,14,04,27.40
2015,08,12,14,05,27.30
2015,08,12,14,06,27.40
2015,08,12,14,07,27.40
2015,08,12,14,08,27.50
2015,08,12,14,09,27.60
2015,08,12,14,10,27.80
2015,08,12,14,11,27.80
2015,08,12,14,12,27.90
2015,08,12,14,13,27.90
2015,08,12,14,14,27.90
2015,08,12,14,15,27.90
2015,08,12,14,16,27.80
2015,08,12,14,17,27.70
2015,08,12,14,18,27.60
2015,08,12,14,19,27.40
2015,08,12,14,20,27.40
2015,08,12,14,21,27.50
2015,08,12,14,22,27.60
2015,08,12,14,23,27.60
2015,08,12,14,24,27.70
2015,08,12,14,25,27.70
2015,08,12,14,26,27.80
2015,08,12,14,27,27.80
2015,08,12,14,28,27.80
2015,08,12,14,29,27.80
2015,08,12,14,30,27.70
2015,08,12,14,31,27.70
2015,08,12,14,32,27.70
2015,08,12,14,33,27.70
2015,08,12,14,34,27.70
2015,08,12,14,35,27.60
2015,08,12,14,36,27.50
2015,08,12,14,37,27.40
2015,08,12,14,38,27.40
2015,08,12,14,39,27.40
2015,08,12,14,40,27.40
2015,08,12,14,41,27.40
2015,08,12,14,42,27.50
2015,08,12,14,43,27.50
2015,08,12,14,44,27.50
2015,08,12,14,45,27.50
2015,08,12,14,46,27.50
2015,08,12,14,47,27.50
2015,08,12,14,48,27.40
2015,08,12,14,49,27.40
2015,08,12,14,50,27.30
2015,08,12,14,51,27.30
2015,08,12,14,52,27.40
2015,08,12,14,53,27.50
2015,08,12,14,54,27.60
2015,08,12,14,55,27.80
2015,08,12,14,56,27.90
2015,08,12,14,57,28.10
2015,08,12,14,58,28.20
2015,08,12,14,59,28.30
2015,08,12,15,00,28.30
2015,08,12,15,01,28.50
2015,08,12,15,02,28.60
2015,08,12,15,03,28.70
2015,08,12,15,04,28.80
2015,08,12,15,05,28.90
2015,08,12,15,06,28.90
2015,08,12,15,07,29.00
2015,08,12,15,08,29.00
2015,08,12,15,09,28.90
2015,08,12,15,10,28.80
2015,08,12,15,11,28.80
2015,08,12,15,12,28.80
2015,08,12,15,13,28.70
2015,08,12,15,14,28.60
2015,08,12,15,15,28.60
2015,08,12,15,16,28.50
2015,08,12,15,17,28.40
2015,08,12,15,18,28.50
2015,08,12,15,19,28.50
2015,08,12,15,20,28.50
2015,08,12,15,21,28.50
2015,08,12,15,22,28.50
2015,08,12,15,23,28.50
2015,08,12,15,24,28.40
2015,08,12,15,25,28.40
2015,08,12,15,26,28.40
2015,08,12,15,27,28.50
2015,08,12,15,28,28.50
2015,08,12,15,29,28.40
2015,08,12,15,30,28.40
2015,08,12,15,31,28.50
2015,08,12,15,32,28.60
2015,08,12,15,33,28.70
2015,08,12,15,34,28.80
2015,08,12,15,35,28.80
2015,08,12,15,36,28.80
2015,08,12,15,37,28.70
2015,08,12,15,38,28.70
2015,08,12,15,39,28.70
2015,08,12,15,40,28.70
2015,08,12,15,41,28.70
2015,08,12,15,42,28.70
2015,08,12,15,43,28.70
2015,08,12,15,44,28.70
2015,08,12,15,45,28.60
2015,08,12,15,46,28.50
2015,08,12,15,47,28.40
2015,08,12,15,48,28.30
2015,08,12,15,49,28.30
2015,08,12,15,50,28.30
2015,08,12,15,51,28.30
2015,08,12,15,52,28.40
2015,08,12,15,53,28.40
2015,08,12,15,54,28.40
2015,08,12,15,55,28.40
2015,08,12,15,56,28.40
2015,08,12,15,57,28.40
2015,08,12,15,58,28.40
2015,08,12,15,59,28.40
2015,08,12,16,00,28.30
2015,08,12,16,01,28.30
2015,08,12,16,02,28.30
2015,08,12,16,03,28.30
2015,08,12,16,04,28.30
2015,08,12,16,05,28.30
2015,08,12,16,06,28.30
2015,08,12,16,07,28.30
2015,08,12,16,08,28.30
2015,08,12,16,09,28.30
2015,08,12,16,10,28.40
2015,08,12,16,11,28.40
2015,08,12,16,12,28.50
2015,08,12,16,13,28.50
2015,08,12,16,14,28.60
2015,08,12,16,15,28.60
2015,08,12,16,16,28.60
2015,08,12,16,17,28.60
2015,08,12,16,18,28.60
2015,08,12,16,19,28.60
2015,08,12,16,20,28.50
2015,08,12,16,21,28.30
2015,08,12,16,22,28.20
2015,08,12,16,23,28.10
2015,08,12,16,24,27.90
2015,08,12,16,25,27.80
2015,08,12,16,26,27.70
2015,08,12,16,27,27.70
2015,08,12,16,28,27.70
2015,08,12,16,29,27.70
2015,08,12,16,30,27.80
2015,08,12,16,31,27.80
2015,08,12,16,32,27.70
2015,08,12,16,33,27.70
2015,08,12,16,34,27.70
2015,08,12,16,35,27.50
2015,08,12,16,36,27.40
2015,08,12,16,37,27.30
2015,08,12,16,38,27.20
2015,08,12,16,39,27.10
2015,08,12,16,40,27.00
2015,08,12,16,41,26.90
2015,08,12,16,42,26.80
2015,08,12,16,43,26.70
2015,08,12,16,44,26.70
2015,08,12,16,45,26.60
2015,08,12,16,46,26.60
2015,08,12,16,47,26.50
2015,08,12,16,48,26.50
2015,08,12,16,49,26.50
2015,08,12,16,50,26.50
2015,08,12,16,51,26.50
2015,08,12,16,52,26.60
2015,08,12,16,53,26.60
2015,08,12,16,54,26.60
2015,08,12,16,55,26.60
2015,08,12,16,56,26.70
2015,08,12,16,57,26.80
2015,08,12,16,58,26.90
2015,08,12,16,59,26.90
2015,08,12,17,00,27.00
2015,08,12,17,01,27.10
2015,08,12,17,02,27.20
2015,08,12,17,03,27.20
2015,08,12,17,04,27.20
2015,08,12,17,05,27.20
2015,08,12,17,06,27.10
2015,08,12,17,07,27.10
2015,08,12,17,08,27.00
2015,08,12,17,09,26.90
2015,08,12,17,10,26.80
2015,08,12,17,11,26.70
2015,08,12,17,12,26.60
2015,08,12,17,13,26.50
2015,08,12,17,14,26.40
2015,08,12,17,15,26.40
2015,08,12,17,16,26.30
2015,08,12,17,17,26.30
2015,08,12,17,18,26.30
2015,08,12,17,19,26.20